Alexis

operational
NORAD ID: 22638 Int'l Des: 1993-026 Owner: STP/LANL Country: US
LEOCIRCULAR
追跡 地上

Alexisについて

説明を読み込み中...

リアルタイム位置

3D地球を読み込み中...

次回通過

高度履歴

Altitude vs Time

uPlot chart will show altitude changes over time

軌道要素

1 22638U 93026A 26071.27602754 .00000147 00000-0 72748-4 0 9994
2 22638 69.9216 157.8687 0062002 290.0190 69.4266 14.33638619 96270
Epoch: Mar 12, 2026 • Age: 29 hours

現在のステータス

高度 797.7 km
速度 7.45 km/s
衛星直下点 34.96°N, 68.83°W
打ち上げ日 Apr 25, 1993
運用期間 32.8 years
タイプ other

技術仕様

分類 Payload
質量 113.00 kg
乾燥質量 113.00 kg
総質量 113.00 kg
長さ 1.00 m
直径 1.00 m
スパン 4.00 m
形状 Box + 4 Pan
製造者 AEROA
バスタイプ Alexis
フェーズステータス In Orbit
所有者/国 STP/LANL/US

大規模コンステレーション

Loading constellations...